Location: Владивосток
(43.1151°N, 131.8856°E)
Time: 00:45:45
(UTC+10:00)

FO-29 - Pass Details

Date: 28 April 2024
Orbit: 801 x 1320 km, 98.6° (Epoch: 19 May)

Event Time Altitude Azimuth Distance (km) Brightness Sun altitude
Rises 01:23:36 0° 27° (NNE) 4,270 13.8 -32.7°
Reaches altitude 10° 01:27:23 10° 45° (NE) 3,335 12.8 -32.6°
Maximum altitude 01:32:34 19° 87° (E) 2,727 11.9 -32.5°
Enters shadow 01:34:51 17° 108° (ESE) 2,854 11.8 -32.5°
